• In Czech Republic
  • List of Countries
  • For 7 days
  • Water Temperature
  • Satellite Maps
  • Weather Map
  • Weather Widgets
  • user-avatar
    Login

    Hourly Weather Bafoussam

    Today, 25 February, Sunday

    Time Temperature Precipitation Wind Pressure Humidity
    00:00 +21°C° 0.1 mm 1 mps 643 mmHg 78%
    01:00 +21°C° 0.1 mm 1 mps 643 mmHg 79%
    02:00 +20°C° 0 mm 1 mps 643 mmHg 79%
    03:00 +20°C° 0 mm 1 mps 643 mmHg 80%
    04:00 +20°C° 0 mm 1 mps 643 mmHg 80%
    05:00 +20°C° 0 mm 1 mps 643 mmHg 81%
    06:00 +20°C° 0 mm 1 mps 644 mmHg 81%
    07:00 +20°C° 0 mm 1 mps 644 mmHg 81%
    08:00 +22°C° 0.1 mm 1 mps 645 mmHg 71%
    09:00 +25°C° 0.1 mm 1 mps 646 mmHg 60%
    10:00 +28°C° 0.1 mm 1 mps 647 mmHg 49%
    11:00 +29°C° 0.2 mm 2 mps 647 mmHg 45%
    12:00 +30°C° 0.2 mm 2 mps 646 mmHg 42%
    13:00 +31°C° 0.2 mm 2 mps 646 mmHg 38%
    14:00 +30°C° 0.3 mm 2 mps 645 mmHg 40%
    15:00 +29°C° 0.3 mm 2 mps 645 mmHg 42%
    16:00 +29°C° 0.3 mm 1 mps 644 mmHg 44%
    17:00 +27°C° 0.6 mm 1 mps 643 mmHg 50%
    18:00 +26°C° 0.6 mm 1 mps 643 mmHg 56%
    19:00 +24°C° 0.6 mm 1 mps 643 mmHg 62%
    20:00 +23°C° 0.3 mm 1 mps 643 mmHg 67%
    21:00 +23°C° 0.3 mm 1 mps 643 mmHg 71%
    22:00 +21°C° 0.3 mm 2 mps 644 mmHg 75%
    23:00 +21°C° 0 mm 1 mps 644 mmHg 77%

    Tomorrow, 26 February, Monday

    Time Temperature Precipitation Wind Pressure Humidity
    00:00 +21°C° 0 mm 1 mps 643 mmHg 79%
    01:00 +21°C° 0 mm 1 mps 643 mmHg 81%
    02:00 +21°C° 0 mm 1 mps 643 mmHg 81%
    03:00 +20°C° 0 mm 1 mps 643 mmHg 82%
    04:00 +20°C° 0 mm 1 mps 643 mmHg 83%
    05:00 +20°C° 0 mm 1 mps 643 mmHg 84%
    06:00 +20°C° 0 mm 1 mps 644 mmHg 85%
    07:00 +20°C° 0 mm 1 mps 644 mmHg 86%
    08:00 +22°C° 0 mm 1 mps 645 mmHg 76%
    09:00 +24°C° 0 mm 1 mps 646 mmHg 67%
    10:00 +27°C° 0 mm 1 mps 647 mmHg 57%
    11:00 +27°C° 0.1 mm 1 mps 646 mmHg 53%
    12:00 +28°C° 0.1 mm 1 mps 646 mmHg 49%
    13:00 +29°C° 0.1 mm 2 mps 646 mmHg 45%
    14:00 +28°C° 0.5 mm 2 mps 645 mmHg 49%
    15:00 +27°C° 0.5 mm 2 mps 644 mmHg 53%
    16:00 +26°C° 0.5 mm 2 mps 643 mmHg 56%
    17:00 +25°C° 1.1 mm 2 mps 643 mmHg 63%
    18:00 +24°C° 1.1 mm 1 mps 643 mmHg 69%
    19:00 +22°C° 1.1 mm 1 mps 643 mmHg 75%
    20:00 +22°C° 0.2 mm 1 mps 644 mmHg 78%
    21:00 +20°C° 0.2 mm 2 mps 644 mmHg 80%
    22:00 +20°C° 0.2 mm 2 mps 645 mmHg 82%
    23:00 +20°C° 0 mm 2 mps 644 mmHg 83%

    Day after tomorrow, 27 February, Tuesday

    Time Temperature Precipitation Wind Pressure Humidity
    00:00 +19°C° 0 mm 2 mps 644 mmHg 84%
    01:00 +19°C° 0 mm 2 mps 644 mmHg 85%
    02:00 +20°C° 0 mm 1 mps 644 mmHg 85%
    03:00 +20°C° 0 mm 1 mps 643 mmHg 85%
    04:00 +20°C° 0 mm 1 mps 643 mmHg 85%
    05:00 +20°C° 0 mm 1 mps 643 mmHg 86%
    06:00 +19°C° 0 mm 1 mps 644 mmHg 87%
    07:00 +19°C° 0 mm 1 mps 644 mmHg 87%
    08:00 +22°C° 0 mm 1 mps 645 mmHg 77%
    09:00 +24°C° 0 mm 1 mps 646 mmHg 68%
    10:00 +26°C° 0 mm 1 mps 648 mmHg 58%
    11:00 +27°C° 0.2 mm 1 mps 647 mmHg 53%
    12:00 +28°C° 0.2 mm 1 mps 647 mmHg 48%
    13:00 +30°C° 0.2 mm 1 mps 646 mmHg 44%
    14:00 +29°C° 0.4 mm 2 mps 646 mmHg 46%
    15:00 +28°C° 0.4 mm 2 mps 645 mmHg 49%
    16:00 +27°C° 0.4 mm 2 mps 644 mmHg 52%
    17:00 +26°C° 0.7 mm 2 mps 644 mmHg 59%
    18:00 +24°C° 0.7 mm 2 mps 644 mmHg 67%
    19:00 +21°C° 0.7 mm 2 mps 644 mmHg 74%
    20:00 +22°C° 0.1 mm 1 mps 644 mmHg 76%
    21:00 +21°C° 0.1 mm 1 mps 645 mmHg 79%
    22:00 +21°C° 0.1 mm 1 mps 645 mmHg 81%
    23:00 +21°C° 0 mm 1 mps 645 mmHg 83%

    28 February, Wednesday

    Time Temperature Precipitation Wind Pressure Humidity
    00:00 +20°C° 0 mm 1 mps 644 mmHg 85%
    01:00 +20°C° 0 mm 1 mps 644 mmHg 87%
    02:00 +20°C° 0 mm 1 mps 644 mmHg 87%
    03:00 +19°C° 0 mm 1 mps 643 mmHg 88%
    04:00 +19°C° 0 mm 1 mps 643 mmHg 88%
    05:00 +19°C° 0 mm 1 mps 643 mmHg 88%
    06:00 +19°C° 0 mm 1 mps 644 mmHg 87%
    07:00 +19°C° 0 mm 1 mps 644 mmHg 86%
    08:00 +22°C° 0 mm 1 mps 645 mmHg 76%
    09:00 +24°C° 0 mm 1 mps 646 mmHg 65%
    10:00 +26°C° 0 mm 1 mps 647 mmHg 55%
    11:00 +28°C° 0 mm 1 mps 647 mmHg 50%
    12:00 +29°C° 0 mm 1 mps 646 mmHg 45%
    13:00 +30°C° 0 mm 2 mps 646 mmHg 41%
    14:00 +29°C° 0.4 mm 2 mps 645 mmHg 44%
    15:00 +28°C° 0.4 mm 1 mps 644 mmHg 47%
    16:00 +28°C° 0.4 mm 1 mps 643 mmHg 50%
    17:00 +26°C° 0.9 mm 1 mps 644 mmHg 57%
    18:00 +25°C° 0.9 mm 1 mps 644 mmHg 63%
    19:00 +23°C° 0.9 mm 1 mps 644 mmHg 70%
    20:00 +23°C° 0.7 mm 1 mps 644 mmHg 72%
    21:00 +22°C° 0.7 mm 1 mps 645 mmHg 75%
    22:00 +21°C° 0.7 mm 1 mps 645 mmHg 78%
    23:00 +21°C° 0 mm 1 mps 645 mmHg 79%

    1 March, Thursday

    Time Temperature Precipitation Wind Pressure Humidity
    00:00 +21°C° 0 mm 1 mps 644 mmHg 79%
    01:00 +21°C° 0 mm 1 mps 644 mmHg 80%
    02:00 +20°C° 0 mm 1 mps 644 mmHg 81%
    03:00 +20°C° 0 mm 1 mps 643 mmHg 81%
    04:00 +20°C° 0 mm 1 mps 643 mmHg 82%
    05:00 +20°C° 0 mm 1 mps 643 mmHg 83%
    06:00 +20°C° 0 mm 1 mps 644 mmHg 83%
    07:00 +20°C° 0 mm 1 mps 644 mmHg 84%
    08:00 +22°C° 0 mm 1 mps 645 mmHg 75%
    09:00 +24°C° 0 mm 1 mps 646 mmHg 66%
    10:00 +26°C° 0 mm 1 mps 647 mmHg 57%
    11:00 +27°C° 0 mm 1 mps 647 mmHg 52%
    12:00 +28°C° 0 mm 2 mps 646 mmHg 47%
    13:00 +29°C° 0 mm 2 mps 646 mmHg 43%
    14:00 +29°C° 0.3 mm 1 mps 645 mmHg 44%
    15:00 +28°C° 0.3 mm 1 mps 644 mmHg 46%
    16:00 +28°C° 0.3 mm 1 mps 644 mmHg 48%
    17:00 +26°C° 0.7 mm 1 mps 644 mmHg 55%
    18:00 +25°C° 0.7 mm 1 mps 644 mmHg 63%
    19:00 +23°C° 0.7 mm 2 mps 644 mmHg 70%
    20:00 +21°C° 0.1 mm 2 mps 644 mmHg 75%
    21:00 +21°C° 0.1 mm 2 mps 644 mmHg 79%
    22:00 +20°C° 0.1 mm 2 mps 644 mmHg 83%
    23:00 +20°C° 0 mm 2 mps 644 mmHg 84%

    2 March, Friday

    Time Temperature Precipitation Wind Pressure Humidity
    00:00 +20°C° 0 mm 1 mps 644 mmHg 86%
    01:00 +20°C° 0 mm 1 mps 643 mmHg 87%
    02:00 +20°C° 0 mm 1 mps 643 mmHg 88%
    03:00 +19°C° 0 mm 1 mps 643 mmHg 89%
    04:00 +19°C° 0 mm 1 mps 642 mmHg 90%
    05:00 +19°C° 0 mm 1 mps 643 mmHg 90%
    06:00 +19°C° 0 mm 1 mps 643 mmHg 90%
    07:00 +19°C° 0 mm 1 mps 643 mmHg 89%
    08:00 +21°C° 0 mm 1 mps 644 mmHg 76%
    09:00 +24°C° 0 mm 1 mps 645 mmHg 63%
    10:00 +27°C° 0 mm 2 mps 647 mmHg 49%
    11:00 +28°C° 0 mm 2 mps 646 mmHg 44%
    12:00 +30°C° 0 mm 2 mps 646 mmHg 39%
    13:00 +31°C° 0 mm 2 mps 646 mmHg 34%
    14:00 +30°C° 0.3 mm 2 mps 645 mmHg 38%
    15:00 +29°C° 0.3 mm 2 mps 644 mmHg 42%
    16:00 +28°C° 0.3 mm 2 mps 643 mmHg 46%
    17:00 +26°C° 0.5 mm 2 mps 643 mmHg 53%
    18:00 +25°C° 0.5 mm 2 mps 643 mmHg 60%
    19:00 +23°C° 0.5 mm 2 mps 643 mmHg 67%
    20:00 +23°C° 0.5 mm 2 mps 644 mmHg 70%
    21:00 +21°C° 0.5 mm 2 mps 644 mmHg 74%
    22:00 +20°C° 0.5 mm 2 mps 644 mmHg 78%
    23:00 +20°C° 0.1 mm 2 mps 644 mmHg 80%
    Show more